DW8013 Weather Reports


Display with metric or nautical units.
time (UTC)temp
F
wind
direction
speed
MPH
gust
MPH
rain 1hr
in
rain 24hr
in
rain mn
in
humidity
%
barometer
mb
20260510054514 52 5 0.0 0.0 0.00 0.00 0.00 82 1015.2
20260510053006 52 5 0.0 0.0 0.00 0.00 0.00 83 1015.3
20260510051505 51 5 0.0 0.0 0.00 0.00 0.00 84 1015.2
20260510050005 51 5 0.0 0.0 0.00 0.00 0.00 85 1015.1
20260510044502 51 5 0.0 0.0 0.00 0.00 0.00 85 1015.1
20260510043101 51 5 0.0 0.0 0.00 0.00 0.00 85 1015.1
20260510041603 51 5 0.0 0.0 0.00 0.00 0.00 85 1015.2
20260510040056 51 5 0.0 0.0 0.00 0.00 0.00 85 1015.1
20260510034557 51 5 0.0 0.0 0.00 0.00 0.00 84 1015.1
20260510033108 51 5 0.0 0.0 0.00 0.00 0.00 84 1015.1
20260510031554 51 5 0.0 0.0 0.00 0.00 0.00 83 1014.9
20260510030110 51 5 0.0 0.0 0.00 0.00 0.00 82 1015.0
20260510024651 51 5 0.0 0.0 0.00 0.00 0.00 82 1015.0
20260510023049 51 5 0.0 0.0 0.00 0.00 0.00 80 1015.1
20260510021548 52 5 0.0 0.0 0.00 0.00 0.00 79 1015.3
20260510020046 52 5 0.0 0.0 0.00 0.00 0.00 77 1015.3
20260510014543 52 5 0.0 0.0 0.00 0.00 0.00 76 1015.4
20260510013043 53 5 0.0 0.0 0.00 0.00 0.00 76 1015.4
20260510011541 53 5 0.0 0.0 0.00 0.00 0.00 75 1015.5
20260510010039 53 5 0.0 0.0 0.00 0.00 0.00 74 1015.5
20260510004541 53 5 0.0 0.0 0.00 0.00 0.00 73 1015.7
20260510003043 53 5 0.0 0.0 0.00 0.00 0.00 72 1015.7
20260510001536 53 5 0.0 0.0 0.00 0.00 0.00 71 1015.8
20260510000035 53 5 0.0 0.0 0.00 0.00 0.00 70 1016.1
20260509234542 53 5 0.0 0.0 0.00 0.00 0.00 70 1016.2
20260509233030 53 5 0.0 0.0 0.00 0.00 0.00 69 1016.2
20260509231529 53 5 0.0 0.0 0.00 0.00 0.00 69 1016.3
20260509230029 54 5 0.0 0.0 0.00 0.00 0.00 68 1016.2
20260509224528 54 5 0.0 0.0 0.00 0.00 0.00 68 1016.3
20260509223027 54 5 0.0 0.0 0.00 0.00 0.00 68 1016.4
20260509221531 54 5 0.0 0.0 0.00 0.00 0.00 66 1016.5
20260509220023 54 5 0.0 0.0 0.00 0.00 0.00 65 1016.3
20260509214522 55 5 0.0 0.0 0.00 0.00 0.00 63 1016.3
20260509213022 55 5 0.0 0.0 0.00 0.00 0.00 62 1016.2
20260509211521 56 5 0.0 0.0 0.00 0.00 0.00 61 1016.3
20260509210021 56 5 0.0 0.0 0.00 0.00 0.00 60 1016.2
20260509204519 57 5 0.0 0.0 0.00 0.00 0.00 61 1016.1
20260509203020 57 5 0.0 0.0 0.00 0.00 0.00 60 1016.0
20260509201518 58 5 0.0 0.0 0.00 0.00 0.00 60 1016.1
20260509200018 58 5 0.0 0.0 0.00 0.00 0.00 59 1016.0
20260509194517 59 5 0.0 0.0 0.00 0.00 0.00 58 1016.0
20260509193017 60 5 0.0 0.0 0.00 0.00 0.00 57 1015.7
20260509191517 61 5 0.0 0.0 0.00 0.00 0.00 56 1015.5
20260509190021 62 5 0.0 0.0 0.00 0.00 0.00 55 1015.5
20260509184515 63 5 0.0 0.0 0.00 0.00 0.00 54 1015.5
20260509183016 65 5 0.0 0.0 0.00 0.00 0.00 52 1015.6
20260509181515 66 5 0.0 0.0 0.00 0.00 0.00 51 1015.6
20260509180014 67 5 0.0 0.0 0.00 0.00 0.00 50 1015.5
20260509174515 68 5 0.0 0.0 0.00 0.00 0.00 48 1015.5
20260509173013 69 5 0.0 0.0 0.00 0.00 0.00 47 1015.3
20260509171525 70 5 0.0 0.0 0.00 0.00 0.00 47 1015.2
20260509170013 71 5 0.0 0.0 0.00 0.00 0.00 46 1015.2
20260509164511 72 5 0.0 0.0 0.00 0.00 0.00 46 1015.1
20260509163012 73 5 0.0 0.0 0.00 0.00 0.00 44 1015.2
20260509161509 74 5 0.0 0.0 0.00 0.00 0.00 43 1015.2
20260509160017 73 5 0.0 0.0 0.00 0.00 0.00 38 1015.3
20260509154508 74 5 0.0 0.0 0.00 0.00 0.00 35 1015.2
20260509153009 76 5 0.0 0.0 0.00 0.00 0.00 37 1015.4
20260509151507 73 5 0.0 0.0 0.00 0.00 0.00 36 1015.3
20260509150008 75 5 0.0 0.0 0.00 0.00 0.00 36 1015.2
20260509144506 74 5 0.0 0.0 0.00 0.00 0.00 37 1015.3
20260509143005 77 5 0.0 0.0 0.00 0.00 0.00 35 1015.4
20260509141509 77 5 0.0 0.0 0.00 0.00 0.00 37 1015.5
20260509140001 75 5 0.0 0.0 0.00 0.00 0.00 38 1015.6
20260509134600 74 5 0.0 0.0 0.00 0.00 0.00 40 1015.7
20260509133058 74 5 0.0 0.0 0.00 0.00 0.00 38 1015.8
20260509131557 75 5 0.0 0.0 0.00 0.00 0.00 37 1015.9
20260509130105 76 5 0.0 0.0 0.00 0.00 0.00 38 1016.1
20260509124610 76 5 0.0 0.0 0.00 0.00 0.00 39 1016.1
20260509123056 75 5 0.0 0.0 0.00 0.00 0.00 38 1016.3
20260509121552 75 5 0.0 0.0 0.00 0.00 0.00 38 1016.4
20260509120059 73 5 0.0 0.0 0.00 0.00 0.00 39 1016.6
20260509114546 75 5 0.0 0.0 0.00 0.00 0.00 38 1016.7
20260509113044 74 5 0.0 0.0 0.00 0.00 0.00 40 1016.9
20260509111542 73 5 0.0 0.0 0.00 0.00 0.00 43 1017.1
20260509110039 74 5 0.0 0.0 0.00 0.00 0.00 41 1017.2
20260509104538 72 5 0.0 0.0 0.00 0.00 0.00 42 1017.4
20260509103034 72 5 0.0 0.0 0.00 0.00 0.00 42 1017.3
20260509101533 73 5 0.0 0.0 0.00 0.00 0.00 45 1017.4
20260509100041 71 5 0.0 0.0 0.00 0.00 0.00 46 1017.4
20260509094528 71 5 0.0 0.0 0.00 0.00 0.00 48 1017.4
20260509093021 69 5 0.0 0.0 0.00 0.00 0.00 48 1017.5
20260509091518 68 5 0.0 0.0 0.00 0.00 0.00 49 1017.6
20260509090013 67 5 0.0 0.0 0.00 0.00 0.00 52 1017.6
20260509084514 66 5 0.0 0.0 0.00 0.00 0.00 54 1017.7
20260509083005 65 5 0.0 0.0 0.00 0.00 0.00 58 1017.8
20260509081503 63 5 0.0 0.0 0.00 0.00 0.00 59 1017.6
20260509080100 62 5 0.0 0.0 0.00 0.00 0.00 60 1017.9
20260509074558 61 5 0.0 0.0 0.00 0.00 0.00 64 1017.9
20260509073054 58 5 0.0 0.0 0.00 0.00 0.00 67 1017.9
20260509071555 57 5 0.0 0.0 0.00 0.00 0.00 68 1018.0
20260509070044 56 5 0.0 0.0 0.00 0.00 0.00 70 1018.0
20260509064540 55 5 0.0 0.0 0.00 0.00 0.00 72 1017.9
20260509063041 54 5 0.0 0.0 0.00 0.00 0.00 73 1018.0
20260509061546 53 5 0.0 0.0 0.00 0.00 0.00 74 1017.9
20260509060039 52 5 0.0 0.0 0.00 0.00 0.00 75 1017.8